CST,Max TemperatureF,Mean TemperatureF,Min TemperatureF,Max Dew PointF,MeanDew PointF,Min DewpointF,Max Humidity, Mean Humidity, Min Humidity, Max Sea Level PressureIn, Mean Sea Level PressureIn, Min Sea Level PressureIn, Max VisibilityMiles, Mean VisibilityMiles, Min VisibilityMiles, Max Wind SpeedMPH, Mean Wind SpeedMPH, Max Gust SpeedMPH,PrecipitationIn, CloudCover, Events, WindDirDegrees
2012-11-1,70,54,37,43,36,31,83,56,30,30.04,29.97,29.89,10,10,10,8,4,,0.00,0,,238
2012-11-2,67,54,42,43,38,32,81,56,32,30.04,29.96,29.91,10,10,10,12,6,,0.00,0,,97
2012-11-3,57,50,39,43,38,34,90,64,51,30.19,30.03,29.88,10,10,10,15,9,22,0.00,0,,349
2012-11-4,55,44,32,42,34,28,100,89,35,30.25,30.21,30.11,10,4,0,6,1,,0.00,3,Fog,67
2012-11-5,46,44,40,43,42,36,100,95,66,30.09,30.01,29.97,10,8,3,15,9,20,0.24,8,Rain,134
2012-11-6,51,46,40,43,41,34,100,95,62,30.07,30.04,29.96,10,6,0,9,4,,0.00,7,Fog,211
2012-11-7,50,42,33,36,34,32,94,71,52,30.17,30.10,30.00,10,9,4,15,7,24,0.00,3,,338
2012-11-8,61,46,30,40,35,30,98,69,38,30.19,30.12,30.04,10,10,9,14,8,21,0.00,0,,157
2012-11-9,72,60,47,57,49,40,77,68,55,30.04,29.96,29.90,10,10,10,15,11,23,0.00,0,,171
2012-11-10,75,66,56,54,50,46,73,61,36,29.97,29.92,29.85,10,10,10,23,12,33,0.00,2,,168
2012-11-11,68,50,32,59,47,32,100,92,71,30.16,29.94,29.76,10,7,1,24,13,40,0.76,8,Rain,283
2012-11-12,45,34,24,30,23,17,93,69,34,30.46,30.34,30.19,10,10,10,13,8,24,0.00,2,,276
2012-11-13,51,39,27,26,23,20,87,57,28,30.53,30.47,30.40,10,10,7,9,4,,0.00,0,,169
2012-11-14,52,42,31,28,24,16,83,53,24,30.47,30.39,30.33,10,10,6,7,4,,0.00,2,,140
2012-11-15,56,42,28,30,26,22,83,56,30,30.38,30.35,30.32,10,10,10,7,4,,0.00,3,,189
2012-11-16,59,46,32,34,30,28,85,58,32,30.45,30.41,30.38,10,10,10,8,3,,0.00,0,,143
2012-11-17,61,47,33,32,27,19,81,54,22,30.48,30.41,30.35,10,10,10,14,8,,0.00,0,,143
2012-11-18,63,48,32,35,28,22,87,52,21,30.37,30.31,30.25,10,10,10,10,7,,0.00,2,,158
2012-11-19,55,50,46,49,44,36,100,83,58,30.27,30.21,30.13,10,10,5,12,7,,0.08,6,Rain,172
2012-11-20,62,52,42,47,44,43,100,89,50,30.22,30.19,30.10,10,5,1,13,4,17,0.00,0,,273
2012-11-21,67,52,37,50,40,30,100,94,25,30.28,30.23,30.10,10,2,0,8,1,,0.00,0,Fog,203
2012-11-22,68,58,47,52,47,41,91,70,44,30.15,30.04,29.95,10,10,10,14,8,24,0.03,5,Rain-Thunderstorm,209
2012-11-23,49,38,27,38,25,16,82,59,43,30.40,30.32,30.18,10,10,10,16,10,28,0.00,1,,303
2012-11-24,44,32,20,19,17,14,81,54,30,30.38,30.24,30.02,10,10,8,13,4,,0.00,1,,209
2012-11-25,60,48,37,29,25,19,62,43,28,30.01,29.96,29.90,10,10,10,12,7,,0.00,0,,203
2012-11-26,45,37,27,31,28,23,85,67,46,30.40,30.17,29.99,10,10,10,16,8,24,0.00,3,Rain,16
2012-11-27,42,29,16,22,19,14,95,67,34,30.48,30.39,30.34,10,10,10,8,4,,0.00,0,,264
2012-11-28,52,39,26,29,24,18,78,61,39,30.46,30.37,30.27,10,10,10,8,4,,0.00,0,,181
2012-11-29,62,47,32,34,31,29,94,60,28,30.25,30.17,30.09,10,10,10,13,9,17,0.00,0,,161
2012-11-30,67,56,44,50,42,32,92,64,52,30.13,30.09,30.05,10,10,10,10,7,,0.00,1,,181